DW0348 Weather Reports


time (UTC)temp
C
wind
direction
speed
KPH
gust
KPH
rain 1hr
cm
rain 24hr
cm
rain mn
cm
humidity
%
barometer
mb
20211017145927 10 212 3.2 9.7 0.00 1.12 0.00 88 1006.4
20211017145426 10 262 0.0 6.4 0.00 1.12 0.00 89 1006.4
20211017144920 10 201 0.0 6.4 0.00 1.12 0.00 89 1006.5
20211017144419 10 274 0.0 8.0 0.00 1.12 0.00 90 1006.5
20211017143918 10 247 1.6 8.0 0.00 1.17 0.00 89 1006.5
20211017143413 10 289 3.2 8.0 0.00 1.17 0.00 89 1006.5
20211017142912 10 262 3.2 8.0 0.00 1.17 0.00 90 1006.5
20211017142412 10 258 1.6 8.0 0.00 1.17 0.00 90 1006.6
20211017141911 10 264 0.0 8.0 0.00 1.17 0.00 91 1006.6
20211017141411 10 298 3.2 8.0 0.00 1.19 0.00 91 1006.6
20211017140924 10 315 0.0 6.4 0.00 1.19 0.00 92 1006.5
20211017140404 9 265 3.2 8.0 0.00 1.22 0.00 92 1006.5
20211017135902 9 315 0.0 9.7 0.00 1.22 0.00 93 1006.6
20211017135401 9 309 0.0 9.7 0.00 1.22 0.00 93 1006.5
20211017134900 9 299 0.0 9.7 0.00 1.24 0.00 94 1006.5
20211017134346 9 240 3.2 8.0 0.00 1.24 0.00 94 1006.6
20211017133844 8 265 4.8 8.0 0.00 1.27 0.00 94 1006.6
20211017133344 8 260 0.0 9.7 0.00 1.27 0.00 94 1006.6
20211017132829 8 233 1.6 9.7 0.00 1.27 0.00 95 1006.6
20211017132326 8 268 6.4 9.7 0.00 1.27 0.00 95 1006.6
20211017131826 8 296 4.8 9.7 0.00 1.30 0.00 95 1006.7
20211017131325 8 258 3.2 9.7 0.00 1.35 0.00 95 1006.7
20211017130824 8 305 3.2 9.7 0.00 1.37 0.00 95 1006.6
20211017130324 8 288 6.4 9.7 0.00 1.40 0.00 95 1006.6
20211017125823 8 244 4.8 8.0 0.00 1.40 0.00 96 1006.5
20211017125320 8 291 0.0 9.7 0.00 1.40 0.00 96 1006.4
20211017124815 8 277 4.8 9.7 0.00 1.40 0.00 96 1006.4
20211017124314 8 291 3.2 8.0 0.00 1.42 0.00 96 1006.4
20211017123814 8 285 0.0 9.7 0.00 1.42 0.00 96 1006.3
20211017123313 8 277 3.2 9.7 0.00 1.42 0.00 96 1006.3
20211017122813 8 230 0.0 8.0 0.00 1.42 0.00 96 1006.2
20211017122311 8 202 3.2 8.0 0.00 1.42 0.00 96 1006.2
20211017121812 7 257 0.0 9.7 0.00 1.42 0.00 96 1006.2
20211017121311 7 270 3.2 9.7 0.00 1.42 0.00 96 1006.1
20211017120805 7 226 0.0 0.0 0.00 1.42 0.00 96 1006.0
20211017120305 7 226 0.0 0.0 0.00 1.42 0.00 96 1006.0
20211017115751 7 226 0.0 0.0 0.00 1.42 0.00 96 1006.0
20211017115248 6 226 0.0 0.0 0.00 1.42 0.00 96 1006.0
20211017114721 6 226 0.0 0.0 0.00 1.42 0.00 95 1005.9
20211017114218 6 226 0.0 0.0 0.00 1.42 0.00 95 1005.8
20211017113636 6 226 0.0 0.0 0.00 1.42 0.00 95 1005.9
20211017113131 6 226 0.0 0.0 0.00 1.42 0.00 95 1005.9
20211017112616 7 226 0.0 0.0 0.00 1.42 0.00 95 1005.9
20211017112102 7 226 0.0 0.0 0.00 1.42 0.00 95 1005.8
20211017111559 7 226 0.0 0.0 0.00 1.42 0.00 95 1005.8
20211017111054 7 226 0.0 0.0 0.00 1.42 0.00 95 1005.7
20211017110551 7 226 0.0 0.0 0.00 1.42 0.00 95 1005.8
20211017110047 7 226 0.0 0.0 0.00 1.42 0.00 95 1005.8
20211017105546 7 226 0.0 0.0 0.00 1.42 0.00 95 1005.8
20211017105039 7 226 0.0 0.0 0.00 1.42 0.00 95 1005.8
20211017104535 7 226 0.0 0.0 0.00 1.42 0.00 95 1005.8
20211017104028 7 226 0.0 0.0 0.00 1.42 0.00 95 1005.8
20211017103522 7 226 0.0 0.0 0.00 1.42 0.00 95 1005.8
20211017103008 7 226 0.0 0.0 0.00 1.42 0.00 95 1005.8
20211017102459 7 226 0.0 0.0 0.00 1.42 0.00 95 1005.8
20211017101950 7 226 0.0 0.0 0.00 1.42 0.00 94 1005.8
20211017101435 7 226 0.0 0.0 0.00 1.42 0.00 94 1005.8
20211017100923 7 226 0.0 0.0 0.00 1.42 0.00 94 1005.9
20211017100420 7 226 0.0 0.0 0.00 1.42 0.00 94 1005.8
20211017095907 7 226 0.0 4.8 0.00 1.42 0.00 94 1005.8
20211017095348 8 226 0.0 4.8 0.00 1.42 0.00 94 1005.9
20211017094840 8 212 0.0 4.8 0.00 1.42 0.00 94 1005.8
20211017094341 8 265 0.0 8.0 0.00 1.42 0.00 94 1005.8
20211017093829 8 272 0.0 8.0 0.00 1.42 0.00 94 1005.9
20211017093320 8 289 0.0 6.4 0.00 1.42 0.00 94 1005.8
20211017092817 8 234 0.0 8.0 0.00 1.42 0.00 94 1005.9
20211017092315 8 284 0.0 8.0 0.00 1.42 0.00 94 1005.8
20211017091814 8 248 0.0 4.8 0.00 1.42 0.00 94 1005.9
20211017091310 8 248 1.6 6.4 0.00 1.42 0.00 94 1005.9
20211017090809 8 258 0.0 6.4 0.00 1.42 0.00 93 1005.9
20211017090300 8 236 0.0 6.4 0.00 1.42 0.00 93 1005.9
20211017085754 8 254 0.0 1.6 0.00 1.42 0.00 93 1005.9
20211017085251 8 254 0.0 4.8 0.00 1.42 0.00 93 1005.9
20211017084736 8 254 0.0 4.8 0.00 1.42 0.00 93 1005.9
20211017084230 8 254 0.0 4.8 0.00 1.42 0.00 93 1005.8
20211017083728 8 253 1.6 4.8 0.00 1.42 0.00 93 1005.9
20211017083227 8 247 1.6 4.8 0.00 1.42 0.00 93 1005.9
20211017082726 8 220 0.0 8.0 0.00 1.42 0.00 93 1005.9
20211017082226 8 282 0.0 8.0 0.00 1.42 0.00 93 1006.0
20211017081725 8 236 1.6 8.0 0.00 1.42 0.00 93 1006.0
20211017081224 8 270 0.0 8.0 0.00 1.42 0.00 93 1006.1
20211017080734 8 234 1.6 6.4 0.00 1.42 0.00 92 1006.0
20211017080145 8 261 0.0 8.0 0.00 1.42 0.00 92 1006.1
20211017075644 8 195 1.6 8.0 0.00 1.42 0.00 92 1006.1
20211017075143 8 248 1.6 8.0 0.00 1.42 0.00 92 1006.1
20211017074640 8 253 0.0 8.0 0.00 1.42 0.00 91 1006.1
20211017074140 8 217 0.0 6.4 0.00 1.42 0.00 91 1006.1
20211017073639 8 191 3.2 9.7 0.00 1.42 0.00 91 1006.0
20211017073136 8 243 0.0 9.7 0.00 1.42 0.00 91 1006.1
20211017072634 8 277 3.2 9.7 0.00 1.42 0.00 91 1006.1
20211017072129 8 217 4.8 8.0 0.00 1.42 0.00 91 1006.1
20211017071628 8 272 0.0 8.0 0.00 1.42 0.00 90 1006.1
20211017071121 8 230 6.4 8.0 0.00 1.42 0.00 89 1006.2
20211017070623 8 234 0.0 6.4 0.00 1.42 0.00 89 1006.2
20211017070116 8 234 1.6 6.4 0.00 1.42 0.00 88 1006.2
20211017065610 8 240 0.0 8.0 0.00 1.45 0.00 88 1006.2
20211017065108 9 264 3.2 8.0 0.00 1.50 0.00 88 1006.2
20211017064607 8 243 0.0 9.7 0.00 1.57 0.00 87 1006.2
20211017064108 9 254 1.6 12.9 0.00 1.68 0.00 87 1006.2
20211017063607 9 260 3.2 12.9 0.00 1.75 0.00 87 1006.3
20211017063105 9 270 6.4 12.9 0.00 1.80 0.00 86 1006.3
20211017062641 9 246 3.2 11.3 0.00 1.93 0.00 85 1006.3
20211017062104 9 268 4.8 11.3 0.00 2.11 0.00 84 1006.3
20211017061604 9 250 3.2 6.4 0.00 2.26 0.00 82 1006.2
20211017061102 9 243 1.6 4.8 0.00 2.54 0.00 81 1006.2
20211017060601 9 241 0.0 6.4 0.00 2.67 0.00 80 1006.2
20211017060049 9 289 1.6 6.4 0.00 2.90 0.00 79 1006.1
20211017055547 10 264 0.0 6.4 0.00 3.12 0.00 79 1006.1
20211017055043 10 264 1.6 8.0 0.00 3.17 0.00 79 1006.1
20211017054538 10 281 4.8 8.0 0.00 3.23 0.00 79 1006.1
20211017054036 10 271 0.0 8.0 0.00 3.25 0.00 78 1006.1
20211017053535 10 265 1.6 8.0 0.00 3.28 0.00 78 1006.1
20211017053033 10 265 1.6 8.0 0.00 3.30 0.00 78 1006.2
20211017052557 10 270 3.2 9.7 0.00 3.35 0.00 77 1006.3
20211017052031 10 251 4.8 9.7 0.00 3.40 0.00 77 1006.3
20211017051530 10 307 6.4 11.3 0.00 3.48 0.00 77 1006.2
20211017051031 10 305 4.8 11.3 0.00 3.58 0.00 76 1006.1
20211017050529 10 302 4.8 11.3 0.00 3.63 0.00 76 1006.2
20211017050028 10 324 6.4 14.5 0.00 3.63 0.00 76 1006.2
20211017045527 10 300 3.2 14.5 0.00 3.63 0.00 76 1006.1
20211017045026 10 296 6.4 14.5 0.00 3.66 0.00 75 1006.1
20211017044528 10 289 6.4 11.3 0.00 3.66 0.00 75 1006.0
20211017044026 11 313 6.4 16.1 0.00 3.68 0.00 75 1005.9
20211017043545 11 296 6.4 16.1 0.00 3.68 0.00 75 1005.9
20211017043022 11 319 8.0 17.7 0.00 3.73 0.00 75 1005.9
20211017042521 11 293 6.4 17.7 0.00 3.78 0.00 75 1005.9
20211017042021 11 307 8.0 14.5 0.00 3.81 0.00 76 1005.9
20211017041520 11 309 4.8 12.9 0.00 3.81 0.00 77 1005.8
20211017041019 11 302 4.8 9.7 0.00 3.81 0.00 78 1005.9
20211017040518 11 319 6.4 11.3 0.00 3.81 0.00 77 1005.8
20211017040018 11 340 3.2 11.3 0.00 3.81 0.00 78 1005.7
20211017035516 11 300 4.8 11.3 0.00 3.81 3.81 78 1005.7
20211017035016 11 312 6.4 11.3 0.00 3.81 3.81 78 1005.7
20211017034515 11 327 3.2 9.7 0.00 3.81 3.81 78 1005.7
20211017034015 11 278 1.6 8.0 0.00 3.81 3.81 77 1005.8
20211017033512 12 296 0.0 8.0 0.00 3.81 3.81 77 1005.7
20211017033011 12 299 3.2 9.7 0.00 3.81 3.81 76 1005.6
20211017032508 12 292 4.8 14.5 0.00 3.81 3.81 76 1005.5
20211017032008 12 329 6.4 14.5 0.00 3.81 3.81 75 1005.5
20211017031507 12 315 4.8 19.3 0.00 3.81 3.81 75 1005.4
20211017031006 12 315 8.0 19.3 0.00 3.81 3.81 75 1005.3
20211017030506 12 309 4.8 16.1 0.00 3.81 3.81 75 1005.1
20211017030005 12 292 8.0 16.1 0.00 3.81 3.81 75 1005.1
20211017025505 12 299 9.7 22.5 0.00 3.81 3.81 75 1005.0
20211017025004 12 305 6.4 22.5 0.00 3.81 3.81 74 1005.1
20211017024504 12 278 9.7 22.5 0.00 3.81 3.81 75 1005.1
20211017024004 12 312 4.8 12.9 0.00 3.81 3.81 76 1005.0
20211017023501 12 320 6.4 11.3 0.00 3.81 3.81 77 1005.0
20211017023001 12 289 4.8 14.5 0.00 3.81 3.81 77 1004.9
20211017022500 12 306 6.4 14.5 0.00 3.81 3.81 76 1004.9
20211017022000 12 292 6.4 16.1 0.00 3.81 3.81 77 1004.9
20211017021459 12 299 8.0 16.1 0.00 3.81 3.81 77 1004.9
20211017020958 12 315 8.0 19.3 0.00 3.81 3.81 78 1004.9
20211017020457 12 309 9.7 19.3 0.00 3.81 3.81 78 1004.9
20211017015958 13 286 8.0 9.7 0.00 3.81 3.81 80 1004.8
20211017015456 13 300 3.2 12.9 0.00 3.81 3.81 80 1004.7
20211017014955 13 299 4.8 14.5 0.00 3.81 3.81 80 1004.7
20211017014455 13 275 9.7 16.1 0.00 3.81 3.81 80 1004.5
20211017013954 13 312 8.0 16.1 0.00 3.81 3.81 81 1004.4
20211017013453 13 306 9.7 16.1 0.00 3.81 3.81 82 1004.3
20211017012953 13 293 4.8 14.5 0.00 3.81 3.81 83 1004.1
20211017012452 13 299 8.0 14.5 0.00 3.81 3.81 83 1004.0
20211017011952 13 300 9.7 14.5 0.00 3.81 3.81 83 1004.0
20211017011451 13 306 8.0 16.1 0.00 3.81 3.81 83 1003.9
20211017010951 13 299 6.4 16.1 0.00 3.81 3.81 83 1003.7
20211017010450 13 316 11.3 19.3 0.00 3.81 3.81 83 1003.7
20211017005949 13 253 8.0 19.3 0.00 3.81 3.81 84 1003.6
20211017005449 13 288 9.7 22.5 0.00 3.81 3.81 84 1003.5
20211017004948 13 300 9.7 22.5 0.00 3.81 3.81 84 1003.3
20211017004447 13 307 9.7 17.7 0.00 3.81 3.81 85 1003.3
20211017003946 13 262 6.4 14.5 0.00 3.81 3.81 86 1003.1
20211017003445 13 282 8.0 14.5 0.00 3.81 3.81 86 1003.0
20211017002945 13 279 9.7 16.1 0.00 3.81 3.81 86 1002.9
20211017002444 13 219 9.7 17.7 0.00 3.81 3.81 85 1002.8
20211017001943 13 296 9.7 24.1 0.00 3.81 3.81 85 1002.8
20211017001450 13 270 11.3 24.1 0.00 3.81 3.81 85 1002.7
20211017000942 13 293 11.3 22.5 0.00 3.81 3.81 85 1002.6
20211017000441 14 286 4.8 14.5 0.00 3.81 3.81 86 1002.6
20211016235941 14 289 6.4 14.5 0.00 3.81 3.81 86 1002.5
20211016235440 14 281 6.4 14.5 0.00 3.81 3.81 86 1002.4
20211016234940 14 288 9.7 14.5 0.00 3.81 3.81 86 1002.4
20211016234439 14 255 6.4 14.5 0.00 3.81 3.81 86 1002.2
20211016233939 14 288 8.0 16.1 0.00 3.81 3.81 86 1002.3
20211016233447 14 275 6.4 17.7 0.00 3.81 3.81 87 1002.2
20211016232936 14 275 11.3 17.7 0.00 3.81 3.81 87 1002.2
20211016232436 14 286 8.0 16.1 0.00 3.81 3.81 87 1002.1
20211016231935 14 277 11.3 17.7 0.00 3.81 3.81 88 1001.7
20211016231435 14 271 6.4 17.7 0.00 3.81 3.81 89 1001.5
20211016230934 14 274 12.9 17.7 0.00 3.81 3.81 89 1001.4
20211016230433 14 265 8.0 17.7 0.00 3.81 3.81 89 1001.3
20211016225933 14 270 8.0 19.3 0.00 3.81 3.81 89 1001.5
20211016225431 14 282 6.4 19.3 0.00 3.81 3.81 88 1001.9
20211016224931 14 286 11.3 20.9 0.00 3.81 3.81 86 1002.2
20211016224430 15 257 11.3 24.1 0.00 3.81 3.81 85 1002.3
20211016223929 15 271 11.3 24.1 0.00 3.81 3.81 85 1002.2
20211016223429 15 241 9.7 22.5 0.00 3.81 3.81 86 1001.8
20211016222928 15 227 9.7 17.7 0.00 3.81 3.81 86 1002.1
20211016222427 15 279 8.0 17.7 0.00 3.81 3.81 86 1001.8
20211016221926 15 275 9.7 16.1 0.00 3.81 3.81 85 1001.2
20211016221426 15 300 9.7 14.5 0.00 3.81 3.81 85 1000.8
20211016220926 15 274 8.0 16.1 0.00 3.81 3.81 85 1000.4
20211016220426 15 275 8.0 16.1 0.00 3.81 3.81 85 1000.3
20211016215925 15 292 11.3 17.7 0.00 3.81 3.81 85 1000.4
20211016215423 15 262 12.9 17.7 0.00 3.81 3.81 85 1000.6
20211016214923 15 260 9.7 20.9 0.00 3.81 3.81 86 1000.9
20211016214423 15 271 9.7 22.5 0.00 3.81 3.81 85 1000.8
20211016213922 15 254 11.3 22.5 0.00 3.81 3.81 86 1000.3
20211016213420 15 265 11.3 22.5 0.00 3.81 3.81 86 1000.8
20211016212920 15 270 8.0 17.7 0.00 3.81 3.81 87 1000.3
20211016212420 15 284 9.7 20.9 0.00 3.81 3.81 87 999.9
20211016211919 15 244 11.3 20.9 0.00 3.81 3.81 87 999.7
20211016211417 15 255 9.7 24.1 0.00 3.81 3.81 87 999.8
20211016210917 15 236 9.7 24.1 0.00 3.81 3.81 88 999.3
20211016210416 15 285 11.3 25.7 0.00 3.81 3.81 88 1000.0
20211016205916 15 262 11.3 25.7 0.00 3.81 3.81 89 1000.0
20211016205415 15 255 12.9 20.9 0.00 3.81 3.81 90 1000.5
20211016204915 15 215 9.7 20.9 0.00 3.81 3.81 90 1000.2
20211016204414 15 270 11.3 19.3 0.00 3.81 3.81 90 999.9
20211016203913 15 258 8.0 19.3 0.00 3.81 3.81 90 999.5
20211016203413 15 277 8.0 20.9 0.00 3.81 3.81 90 999.3
20211016202912 15 258 12.9 20.9 0.00 3.81 3.81 90 999.6
20211016202412 15 206 11.3 20.9 0.00 3.81 3.81 90 999.4
20211016201910 15 255 8.0 16.1 0.03 3.81 3.81 91 999.0
20211016201409 15 257 9.7 19.3 0.03 3.81 3.81 91 999.3
20211016200923 15 285 12.9 19.3 0.03 3.81 3.81 91 999.6
20211016200409 15 201 8.0 17.7 0.03 3.81 3.81 92 999.4
20211016195908 15 206 9.7 17.7 0.03 3.81 3.81 92 999.3
20211016195408 15 268 3.2 17.7 0.03 3.81 3.81 91 998.8
20211016194906 15 274 9.7 17.7 0.03 3.81 3.81 91 999.0
20211016194406 15 267 9.7 16.1 0.05 3.81 3.81 91 999.0
20211016193905 15 282 8.0 16.1 0.05 3.81 3.81 91 999.1
20211016193405 15 284 8.0 20.9 0.10 3.81 3.81 91 998.9
20211016192905 15 291 9.7 20.9 0.10 3.81 3.81 91 999.2
20211016192403 16 271 9.7 19.3 0.15 3.81 3.81 92 999.2
20211016191902 16 270 8.0 19.3 0.13 3.78 3.81 92 998.9
20211016191402 16 262 8.0 29.0 0.15 3.78 3.78 92 999.0
20211016190901 16 286 16.1 29.0 0.15 3.78 3.78 92 999.3
20211016190400 16 299 8.0 20.9 0.18 3.78 3.78 93 998.9
20211016185927 16 236 9.7 20.9 0.20 3.78 3.78 93 998.7
20211016185359 16 274 11.3 17.7 0.20 3.78 3.78 93 998.7
20211016184859 16 279 9.7 20.9 0.20 3.78 3.78 93 998.7
20211016184357 16 253 12.9 20.9 0.18 3.76 3.76 93 998.4
20211016183857 16 257 11.3 20.9 0.18 3.73 3.73 93 998.2
20211016183356 17 255 12.9 29.0 0.15 3.71 3.71 92 997.9
20211016182856 17 229 14.5 29.0 0.20 3.68 3.71 92 997.7
20211016182355 17 288 12.9 20.9 0.23 3.66 3.68 93 997.7
20211016181855 17 257 11.3 20.9 0.23 3.66 3.66 93 997.6
20211016181354 17 265 9.7 20.9 0.20 3.63 3.63 93 997.4
20211016180853 17 303 8.0 20.9 0.23 3.63 3.63 93 997.3
20211016180352 18 210 11.3 17.7 0.20 3.61 3.61 94 997.5
20211016175851 18 232 8.0 17.7 0.20 3.58 3.58 94 997.4
20211016175351 18 274 9.7 14.5 0.20 3.58 3.58 94 997.4
20211016174851 18 225 8.0 16.1 0.20 3.58 3.58 94 997.1
20211016174403 18 262 9.7 16.1 0.23 3.58 3.58 94 997.1
20211016173925 18 253 8.0 14.5 0.23 3.56 3.56 94 997.2
20211016173349 18 284 4.8 14.5 0.23 3.56 3.56 94 997.1
20211016172848 18 305 6.4 14.5 0.15 3.48 3.48 94 997.4
20211016172347 18 305 9.7 16.1 0.13 3.43 3.45 94 997.4
20211016171846 18 286 6.4 19.3 0.13 3.43 3.43 94 997.4
20211016171345 18 286 8.0 19.3 0.15 3.43 3.43 94 997.6
20211016170845 18 260 8.0 14.5 0.15 3.40 3.40 94 997.6
20211016170344 18 282 3.2 14.5 0.20 3.40 3.40 94 997.3
20211016165843 18 271 8.0 11.3 0.25 3.38 3.38 94 997.3
20211016165342 19 288 6.4 11.3 0.33 3.38 3.38 94 997.0
20211016164842 19 234 3.2 8.0 0.38 3.38 3.38 94 996.7
20211016164341 19 212 1.6 9.7 0.43 3.35 3.35 94 996.5
20211016163841 18 284 6.4 9.7 0.46 3.33 3.33 94 996.8
20211016163339 19 268 3.2 8.0 0.51 3.33 3.33 94 996.8
20211016162839 19 303 1.6 6.4 0.56 3.33 3.33 94 996.8
20211016162338 19 262 0.0 8.0 0.56 3.30 3.30 94 996.9
20211016161829 19 274 3.2 11.3 0.58 3.30 3.30 94 997.2
20211016161323 19 244 3.2 11.3 0.56 3.28 3.28 94 997.3
20211016160822 19 205 1.6 9.7 0.53 3.25 3.28 93 997.4
20211016160321 19 267 0.0 9.7 0.48 3.20 3.20 93 997.4
20211016155821 19 281 3.2 9.7 0.41 3.10 3.12 93 997.6
20211016155321 19 279 4.8 12.9 0.36 3.05 3.05 93 997.9
20211016154821 19 275 4.8 14.5 0.30 3.00 3.00 93 997.8
20211016154319 19 247 6.4 16.1 0.23 2.92 2.95 93 997.8
20211016153818 19 264 11.3 16.1 0.23 2.87 2.87 93 997.8
20211016153318 19 254 8.0 12.9 0.18 2.82 2.82 92 997.6
20211016152818 19 248 6.4 16.1 0.13 2.77 2.79 92 997.4
20211016152316 19 187 11.3 16.1 0.10 2.74 2.74 92 997.3
20211016151815 19 285 4.8 11.3 0.10 2.72 2.72 92 997.3
20211016151318 19 267 4.8 11.3 0.10 2.72 2.72 92 997.3
20211016150814 19 241 6.4 11.3 0.10 2.72 2.72 92 997.4
20211016150313 19 236 6.4 11.3 0.13 2.72 2.72 92 997.5